Wind_Speed
4 8 9 11 16 16 21 28 23 16 16 16 16 14 18 20 22 25 26 32 35 43 56 60 54 50 47 52 49 48 59 69 64 51 41 54 55 61 56 57 59 55 56
7 13 5 5 14 18 22 26 17 16 15 18 18 18 16 15 18 22 24 29 37 42 50 56 56 48 50 45 40 55 57 74 72 60 54 51 53 59 60 58 55 54 48
8 15 6 4 11 18 20 27 16 13 11 17 21 21 22 15 13 15 22 28 33 40 50 56 50 49 44 45 46 52 60 75 72 73 58 53 47 52 52 56 62 57 51
8 16 7 5 7 15 17 22 20 8 11 12 15 17 17 18 18 13 15 20 27 36 48 51 51 47 41 46 46 52 58 63 69 70 71 59 57 54 55 50 54 56 59
9 17 11 8 4 8 14 21 25 12 9 7 10 10 10 9 9 12 11 14 23 33 43 46 53 45 35 42 43 49 53 61 57 58 55 64 64 62 60 60 56 58 54
4 15 13 13 8 2 7 14 19 23 10 5 1 8 8 11 11 14 17 16 19 29 30 30 46 46 29 31 42 42 38 49 55 53 49 54 58 58 69 69 51 60 59
6 9 15 13 12 8 4 9 10 17 23 10 7 7 6 10 15 20 19 20 29 28 32 33 32 37 30 29 33 31 37 41 50 51 52 52 48 57 55 65 61 66 73
11 5 12 17 14 10 9 9 7 9 15 19 8 7 10 13 16 17 22 25 25 30 32 31 27 30 31 28 26 24 25 25 30 36 41 35 38 38 52 49 55 58 64
12 9 7 17 16 14 14 15 10 8 10 15 12 8 12 14 16 15 18 16 20 27 32 28 26 22 25 23 25 27 25 24 24 22 25 29 30 35 39 45 45 46 52
9 10 6 2 17 18 15 11 11 10 12 12 8 6 4 10 17 15 13 17 18 17 27 31 28 24 27 28 25 27 25 31 27 30 36 37 40 44 45 49 53 54 57
8 6 6 4 3 8 18 18 17 15 14 14 9 2 1 3 11 16 16 18 15 19 22 25 21 20 22 27 28 32 32 33 34 39 39 39 43 47 52 56 52 58 61
7 6 4 4 3 3 3 7 11 10 10 10 12 11 7 11 13 11 14 16 15 17 21 29 29 24 27 32 31 32 36 36 39 43 46 47 51 53 54 55 57 58 63
4 5 5 4 4 4 4 5 3 3 5 7 10 12 13 12 15 21 21 20 20 18 22 23 24 27 29 34 37 39 42 43 44 44 47 51 53 55 58 63 66 67 63
6 5 6 7 6 6 7 6 6 7 9 7 7 10 14 16 18 21 23 24 29 29 31 30 34 35 36 39 38 41 44 46 50 50 51 50 51 53 54 54 54 56 57
10 8 7 7 7 9 8 9 10 10 10 9 11 11 11 13 14 17 21 24 26 27 29 31 35 39 40 39 41 42 40 40 43 44 45 46 47 49 49 49 51 52 54
12 13 11 11 13 13 12 10 10 11 14 13 13 14 14 15 16 17 21 23 25 27 29 31 32 35 37 37 38 39 41 42 43 42 42 43 44 45 46 50 53 56 57
15 15 15 14 13 14 15 13 12 12 11 14 15 15 15 15 16 17 18 19 20 21 24 25 28 30 31 30 33 35 36 37 37 38 40 41 44 48 51 53 53 55 61
17 15 16 15 15 14 15 17 17 15 16 14 13 10 10 13 14 14 15 17 17 20 22 25 27 26 28 30 31 31 33 35 38 40 43 45 47 49 51 52 56 61 67
20 18 16 16 16 17 18 19 20 21 19 18 15 13 12 12 14 17 19 21 22 22 24 25 25 26 27 28 31 33 35 36 37 40 42 44 46 48 53 57 62 66 70
24 22 20 19 21 22 22 22 24 23 25 25 24 23 21 19 19 21 23 24 23 21 24 26 28 30 30 30 29 31 35 39 42 45 47 49 51 54 59 63 67 71 75
29 26 25 24 24 24 25 25 24 26 28 29 31 30 29 29 29 28 26 28 28 28 30 31 30 32 33 35 37 40 42 44 46 48 50 53 55 59 64 69 73 75 75
35 30 28 28 29 29 28 28 28 28 28 34 36 36 36 36 38 39 37 37 38 36 37 39 38 38 41 43 44 46 48 48 49 52 54 58 62 66 67 69 72 74 75
37 36 33 30 31 32 32 32 32 30 30 32 37 41 43 43 42 42 42 44 44 42 42 42 44 45 47 49 51 49 50 53 57 57 60 63 64 63 63 68 72 75 79
42 39 35 33 33 33 32 34 32 31 32 32 34 38 42 45 46 46 46 46 45 44 43 44 45 45 47 51 52 49 55 58 60 58 63 65 69 68 77 81 82 88 91
45 42 40 38 38 38 35 33 34 34 34 38 42 41 43 45 47 49 49 49 52 53 53 51 49 50 49 52 54 57 55 55 56 60 60 70 72 73 84 87 88 91 94
47 46 44 44 44 42 41 40 38 40 45 41 42 46 51 52 54 55 57 58 57 54 56 57 51 50 49 47 47 52 54 56 50 57 72 71 72 79 86 89 92 95 99
Wind_Direction
266 189 101 54 15 20 20 11 16 37 52 64 83 121 140 148 167 172 175 179 186 173 171 169 175 174 178 172 179 181 185 178 182 184 190 205 210 214 216 222 227 230 236
247 169 123 71 15 26 24 11 29 56 64 72 84 107 112 130 150 169 169 173 176 172 172 175 177 177 188 183 186 185 185 179 188 189 205 210 219 224 225 225 229 234 240
232 182 170 91 30 36 30 23 48 65 52 82 79 97 97 100 124 144 156 172 181 179 175 175 176 180 182 187 190 187 189 186 192 199 204 210 213 225 231 235 236 239 244
225 188 197 153 72 63 41 34 41 59 56 67 78 85 86 80 90 143 168 178 178 183 177 178 183 186 179 188 190 196 194 198 201 207 212 212 219 226 229 241 248 249 253
237 210 196 168 159 67 47 41 37 59 52 62 78 94 97 93 115 132 132 144 177 178 187 189 188 188 193 194 195 202 208 205 209 216 224 223 226 229 235 242 248 252 263
253 224 223 198 204 262 355 25 40 43 73 60 197 106 70 85 127 152 144 142 153 173 183 192 194 195 208 205 207 208 207 215 215 219 229 232 236 240 235 240 261 258 263
328 226 228 229 224 243 281 357 13 33 41 80 89 150 120 78 101 135 152 155 164 161 166 174 183 194 198 206 211 214 223 221 227 229 232 237 251 248 250 254 261 262 263
357 305 243 232 222 230 254 304 335 352 15 35 86 124 130 109 121 133 148 159 158 164 171 175 177 180 190 200 189 204 212 208 221 231 243 247 252 262 254 263 263 265 268
11 358 359 224 230 238 248 264 297 316 337 9 30 92 125 128 136 156 147 154 164 169 173 180 174 190 182 192 200 197 211 214 215 239 233 239 246 244 251 255 273 269 269
10 9 1 328 241 237 249 255 266 293 309 326 354 34 116 135 157 158 168 184 178 174 180 186 195 196 200 201 206 210 221 237 231 238 250 249 256 262 259 265 271 271 273
9 10 5 354 335 243 252 261 267 272 276 289 294 134 83 137 159 162 175 185 199 196 195 200 211 210 217 221 225 227 228 232 244 251 259 260 264 266 267 268 273 274 277
8 10 356 354 348 281 257 266 270 274 252 244 254 252 210 200 214 212 198 206 211 210 219 212 220 219 230 236 243 244 250 255 258 266 273 266 271 269 272 279 278 280 279
10 354 1 343 304 304 287 255 255 256 239 239 240 230 229 224 220 217 219 227 231 236 241 242 246 247 251 248 248 252 256 257 264 270 271 272 274 276 277 279 277 279 281
317 310 330 344 330 289 274 269 262 255 248 238 236 227 225 232 234 230 230 230 234 241 245 241 244 248 249 254 258 259 261 264 267 270 271 275 278 278 278 280 279 277 278
332 303 296 314 329 329 305 289 271 264 259 257 240 233 232 231 235 239 240 241 243 247 250 251 251 253 255 257 261 266 270 271 271 270 272 273 276 276 276 279 280 281 283
341 316 295 289 285 298 312 305 289 266 256 251 245 237 234 238 239 242 244 245 247 248 246 247 249 251 255 258 262 267 268 270 272 274 275 276 277 279 281 282 284 289 289
330 332 323 306 304 288 288 298 303 278 260 253 251 251 255 257 259 257 253 252 253 255 259 261 261 262 266 270 269 271 274 277 279 280 278 280 284 285 289 292 292 287 288
312 321 323 323 312 297 289 291 291 290 276 263 258 246 245 257 260 264 269 271 268 262 259 261 265 270 272 274 276 278 280 282 283 286 290 291 291 291 289 287 286 289 293
294 298 309 311 309 300 294 291 289 282 282 277 266 256 251 250 266 270 272 274 275 284 284 280 279 277 277 279 284 287 286 287 289 289 288 289 290 291 291 292 293 295 298
285 287 292 294 294 298 302 299 287 285 275 273 273 274 270 264 263 270 277 278 282 286 285 287 288 281 283 284 285 288 291 294 294 294 294 294 295 293 291 292 294 297 300
285 287 287 286 287 292 293 297 293 282 275 272 266 265 267 269 271 270 271 275 274 274 280 285 287 285 283 284 287 290 293 292 293 292 290 290 290 289 292 295 298 301 302
284 284 282 284 284 284 288 289 290 283 280 271 267 264 264 265 267 270 272 271 273 272 272 277 280 282 285 284 286 289 290 288 290 293 297 296 293 293 297 299 300 301 305
281 280 282 286 286 287 287 287 288 285 281 279 271 269 265 263 266 269 270 270 271 273 275 279 282 284 284 284 285 285 287 289 293 295 300 302 301 299 301 305 304 306 311
280 278 278 279 279 280 280 282 281 283 279 279 279 278 274 269 268 267 268 270 271 271 273 276 281 286 289 288 288 289 293 296 296 301 303 305 307 305 309 309 312 314 315
279 277 275 275 277 282 278 275 283 286 282 276 280 283 281 282 280 276 274 270 271 268 269 271 279 281 284 285 286 286 292 297 299 301 303 298 303 301 305 308 310 313 313
269 268 267 270 274 280 280 280 282 279 282 279 277 275 279 279 278 277 274 271 272 273 273 273 273 276 283 281 280 279 291 290 302 300 295 295 295 299 302 306 307 307 307
Height
10628 10630 10630 10628 10624 10620 10614 10608 10602 10598 10594 10592 10591 10590 10593 10597 10600 10604 10609 10615 10618 10624 10631 10641 10647 10654 10659 10669 10678 10688 10699 10709 10720 10726 10733 10740 10744 10746 10749 10751 10754 10758 10759
10629 10631 10630 10629 10626 10621 10616 10611 10606 10604 10601 10598 10598 10598 10599 10602 10606 10610 10614 10618 10622 10629 10636 10644 10650 10656 10663 10672 10678 10687 10697 10708 10715 10725 10730 10734 10738 10740 10741 10743 10747 10749 10751
10629 10631 10631 10630 10628 10623 10620 10616 10611 10610 10607 10607 10606 10605 10606 10608 10610 10613 10618 10624 10627 10631 10637 10645 10653 10659 10666 10674 10679 10686 10693 10702 10709 10715 10720 10724 10729 10732 10735 10739 10742 10746 10745
10630 10631 10631 10630 10630 10626 10624 10621 10617 10614 10613 10613 10613 10612 10612 10613 10616 10619 10623 10626 10631 10637 10642 10649 10655 10662 10668 10675 10680 10686 10693 10700 10705 10708 10713 10718 10723 10728 10730 10734 10735 10739 10740
10630 10632 10632 10631 10631 10630 10627 10626 10623 10620 10618 10618 10619 10620 10620 10619 10621 10623 10625 10629 10633 10640 10647 10651 10658 10663 10669 10676 10681 10687 10692 10697 10704 10709 10712 10715 10721 10724 10725 10728 10728 10731 10732
10631 10632 10633 10633 10632 10632 10630 10629 10627 10626 10625 10622 10622 10623 10624 10625 10625 10627 10630 10634 10637 10643 10649 10653 10660 10665 10669 10675 10681 10687 10692 10696 10702 10704 10707 10709 10712 10717 10720 10721 10724 10722 10724
10631 10632 10633 10633 10633 10633 10633 10632 10630 10630 10629 10628 10627 10627 10628 10628 10627 10630 10633 10637 10641 10647 10653 10656 10662 10667 10670 10675 10681 10686 10691 10697 10699 10703 10707 10710 10711 10712 10715 10716 10717 10716 10713
10631 10631 10631 10632 10634 10635 10634 10634 10634 10633 10632 10632 10631 10631 10632 10633 10634 10636 10638 10641 10645 10652 10656 10660 10664 10668 10673 10678 10683 10687 10690 10695 10697 10700 10703 10707 10708 10708 10711 10713 10713 10710 10706
10631 10630 10629 10631 10633 10635 10636 10636 10635 10635 10635 10634 10634 10635 10637 10638 10640 10642 10646 10648 10652 10656 10660 10664 10668 10671 10675 10679 10683 10686 10690 10692 10695 10698 10701 10702 10702 10702 10702 10702 10701 10696 10693
10633 10632 10630 10630 10632 10634 10635 10636 10637 10637 10637 10638 10638 10638 10640 10641 10643 10646 10648 10652 10655 10659 10663 10665 10669 10673 10675 10677 10682 10684 10689 10690 10692 10694 10695 10695 10695 10695 10694 10692 10688 10683 10682
10634 10633 10632 10631 10631 10632 10634 10635 10636 10637 10638 10639 10640 10641 10640 10643 10647 10649 10651 10653 10656 10660 10663 10666 10668 10671 10673 10677 10679 10681 10683 10685 10686 10686 10687 10688 10687 10686 10683 10680 10679 10677 10673
10633 10634 10633 10632 10632 10631 10633 10634 10635 10635 10636 10638 10640 10642 10644 10644 10645 10648 10652 10654 10657 10660 10662 10664 10666 10668 10670 10672 10674 10677 10679 10679 10678 10679 10679 10677 10676 10675 10673 10670 10667 10663 10657
10631 10632 10633 10634 10633 10632 10632 10633 10634 10634 10635 10637 10638 10640 10642 10644 10646 10648 10649 10651 10654 10655 10658 10660 10662 10664 10665 10667 10669 10670 10671 10670 10670 10670 10668 10666 10663 10661 10659 10655 10652 10648 10641
10631 10631 10632 10632 10633 10633 10632 10632 10633 10633 10634 10635 10636 10638 10640 10641 10643 10645 10647 10649 10651 10653 10655 10656 10657 10658 10659 10660 10661 10661 10661 10661 10661 10658 10655 10653 10650 10646 10643 10639 10636 10632 10627
10631 10630 10630 10631 10631 10632 10632 10631 10631 10632 10633 10633 10634 10635 10636 10638 10639 10641 10642 10644 10645 10647 10648 10649 10649 10650 10651 10652 10652 10652 10652 10650 10648 10647 10647 10643 10639 10636 10632 10627 10621 10616 10613
10629 10628 10629 10629 10629 10629 10630 10630 10629 10628 10629 10630 10631 10632 10632 10633 10634 10636 10637 10638 10639 10640 10641 10641 10642 10642 10641 10643 10644 10643 10640 10640 10639 10637 10635 10632 10628 10625 10620 10616 10612 10607 10601
10628 10627 10625 10626 10626 10625 10626 10626 10626 10627 10626 10626 10627 10629 10629 10630 10631 10631 10631 10632 10634 10634 10634 10634 10634 10633 10634 10633 10632 10632 10630 10629 10627 10625 10622 10619 10617 10613 10609 10604 10600 10593 10585
10624 10625 10624 10623 10623 10623 10623 10623 10623 10623 10624 10625 10625 10626 10627 10627 10627 10627 10627 10626 10627 10627 10627 10626 10625 10626 10626 10625 10623 10623 10621 10619 10616 10614 10612 10609 10605 10601 10596 10590 10584 10578 10572
10621 10622 10622 10622 10621 10621 10621 10620 10619 10619 10619 10620 10622 10623 10623 10623 10622 10623 10623 10622 10621 10622 10622 10621 10621 10619 10618 10617 10616 10613 10612 10610 10606 10603 10599 10596 10593 10588 10582 10576 10570 10565 10559
10616 10617 10617 10617 10617 10616 10616 10616 10615 10615 10614 10614 10614 10615 10615 10616 10616 10615 10615 10616 10615 10615 10614 10614 10614 10612 10610 10609 10607 10605 10601 10598 10594 10590 10585 10581 10578 10574 10569 10562 10556 10550 10542
10610 10611 10611 10611 10611 10610 10610 10610 10609 10608 10608 10607 10607 10607 10607 10607 10607 10607 10608 10608 10607 10606 10605 10605 10605 10604 10602 10600 10597 10594 10591 10587 10583 10579 10575 10571 10568 10562 10555 10547 10541 10533 10524
10602 10603 10603 10604 10604 10603 10602 10601 10601 10600 10599 10598 10599 10599 10600 10599 10598 10597 10598 10598 10598 10598 10596 10595 10594 10593 10592 10589 10586 10583 10579 10574 10571 10568 10564 10558 10552 10546 10539 10532 10523 10514 10506
10592 10593 10594 10595 10595 10594 10593 10592 10591 10591 10591 10589 10587 10588 10589 10590 10589 10588 10588 10586 10585 10587 10585 10585 10583 10580 10578 10576 10573 10571 10567 10562 10558 10553 10548 10541 10535 10528 10522 10514 10507 10497 10488
10581 10582 10583 10584 10585 10585 10584 10583 10582 10581 10581 10580 10579 10576 10575 10577 10578 10578 10578 10575 10575 10574 10575 10573 10569 10567 10564 10562 10558 10556 10552 10548 10544 10539 10532 10525 10517 10511 10504 10496 10488 10477 10468
10567 10568 10569 10570 10570 10571 10573 10573 10573 10572 10571 10570 10568 10568 10566 10563 10562 10564 10564 10564 10562 10562 10561 10560 10557 10554 10551 10549 10547 10543 10540 10537 10533 10526 10520 10513 10505 10498 10488 10480 10471 10461 10453
10555 10555 10556 10555 10555 10556 10558 10560 10562 10561 10559 10560 10561 10558 10555 10553 10551 10548 10546 10545 10544 10545 10545 10544 10543 10540 10538 10536 10533 10530 10528 10524 10518 10513 10507 10500 10492 10484 10475 10465 10457 10448 10439